User: anonymous   Login
Location: Betpouey
(42.8833°N, 0.0333°E)
Time: 00:29:54
(UTC+00:00)
Language:

Meteor 1-4 Rocket - Orbit

View from above orbital plane
View from above orbital plane
View from above satellite
View from above satellite

Ground track
Ground track

The orbit data is extracted from the following two-line orbital elements,

1  4394U 70037B   21061.60654629  .00001918  00000-0  62581-4 0  9990
2  4394  81.2407 221.5521 0038382 169.2484 190.9583 15.30514026771771
Epoch (UTC): 02 March 2021 14:33:25
Eccentricity: 0.0038382
inclination: 81.2407°
perigee height: 448 km
apogee height: 500 km
right ascension of ascending node: 221.5521°
argument of perigee: 169.2484°
revolutions per day: 15.30514026
mean anomaly at epoch: 190.9583°
orbit number at epoch: 77177

The dashed part of the orbit path shows where the satellite is in the earth's shadow,  

DLR